Flag for Switzerland Weather past 2 weeks in Buchs, St. Gallen, Switzerland

Now
63 °F

Mild.


Feels Like: 63 °F
Forecast: 56 / 89 °F
Wind: No wind

Location: Vaduz

Current Time: Aug 2, 2015 at 11:32:22 PM

Latest Report: Aug 2, 2015 at 10:00 PM


Visibility: N/A

Pressure: 30.06 "Hg

Humidity: 88%

Dew point: 60 °F

Location of BuchsLocation

Historic Weather in Buchs — Graph

°F

Buchs temperature yesterday

Maximum temperature yesterday: 71 °F (at 5:00 PM)
Minimum temperature yesterday: 59 °F (at 5:00 AM)
Average temperature yesterday: 63 °F

Past Weeks' High & Low Weather Summary

 TemperatureHumidityPressure
High91 °F (Jul 22, 4:00 PM)96% (Jul 23, 5:00 AM)30.13 "Hg (Jul 23, 5:00 AM)
Low48 °F (Jul 31, 6:00 AM)39% (Jul 22, 4:00 PM)29.67 "Hg (Jul 24, 7:00 PM)
Average68 °F73%29.93 "Hg
* Reported Jul 18 10:00 PM — Aug 2 10:00 PM, Buchs, Weather by CustomWeather, © 2015

Note: Actual official high and low records may vary slightly from our data, if they occured in-between our weather recording intervals... More about our weather records

Advertising

Buchs weather history for previous 24 hours

 ConditionsComfort  
Time TempWeatherWind HumidityBarometerVisibility
10:00 PM
Sun, Aug 2
63 °FMild.No wind88%30.06 "HgN/A
9:00 PM66 °FMild.No wind80%30.04 "HgN/A
8:00 PM72 °FMild.3 mph59%30.01 "HgN/A
7:00 PM76 °FMild.7 mph48%30.00 "HgN/A
6:00 PM78 °FWarm.6 mph52%30.00 "HgN/A
5:00 PM77 °FPassing clouds.8 mph53%30.00 "Hg11 mi
4:00 PM76 °FMild.7 mph55%30.01 "HgN/A
3:00 PM74 °FMild.3 mph58%30.04 "HgN/A
2:00 PM74 °FFog.5 mph62%30.06 "Hg6 mi
1:00 PM71 °FMild.5 mph70%30.09 "HgN/A
12:00 PM67 °FMild.3 mph76%30.12 "HgN/A
11:00 AM66 °FFog.2 mph86%30.12 "Hg4 mi
10:00 AM63 °FMild.No wind90%30.13 "HgN/A
9:00 AM62 °FCool.No wind93%30.12 "HgN/A
8:00 AM61 °FDrizzle. Overcast.No wind96%30.12 "Hg2 mi
7:00 AM61 °FCool.No wind96%30.11 "HgN/A
6:00 AM61 °FCool.No wind96%30.10 "HgN/A
5:00 AM61 °FPassing clouds.No wind96%30.09 "Hg9 mi
4:00 AM60 °FCool.No wind96%30.08 "HgN/A
3:00 AM60 °FCool.No wind96%30.08 "HgN/A
2:00 AM60 °FPassing clouds.No wind95%30.08 "Hg9 mi
1:00 AM60 °FCool.No wind95%30.08 "HgN/A
12:00 AM61 °FCool.No wind96%30.08 "HgN/A
Weather by CustomWeather, © 2015

See weather overviewHow to use our weather pages